Wetterdaten: Freitag, 19.12.2014
Datum Zeit Temp. A. Feuchte A. Luftdruck Regen Wind Richtung Richtung Sonnenschein ET UV Solar Taupunkt Windchill Windben Empfang
19.12.2014 00:00 10,1 C 81 % 1016,8 hPa 0,0 l/m 4,7 km/h (1 Bft) S-SW 210 0 min 0,000 mm 0,0 UV-I 0 W/m 7,0 C 10,1 C 7,9 km/h (2 Bft) 0,00 %
19.12.2014 01:00 10,3 C 81 % 1016,8 hPa 0,0 l/m 2,1 km/h (1 Bft) S 180 0 min 0,000 mm 0,0 UV-I 0 W/m 7,2 C 10,3 C 4,0 km/h (1 Bft) 0,00 %
19.12.2014 02:00 10,6 C 79 % 1017,4 hPa 0,0 l/m 6,9 km/h (2 Bft) S 190 0 min 0,000 mm 0,0 UV-I 0 W/m 7,1 C 10,3 C 11,9 km/h (2 Bft) 0,00 %
19.12.2014 03:00 11,2 C 71 % 1017,3 hPa 0,0 l/m 1,4 km/h (1 Bft) SW 234 0 min 0,000 mm 0,0 UV-I 0 W/m 6,1 C 11,2 C 4,0 km/h (1 Bft) 0,00 %
19.12.2014 04:00 11,1 C 69 % 1017,3 hPa 0,0 l/m 10,8 km/h (2 Bft) SW 222 0 min 0,000 mm 0,0 UV-I 0 W/m 5,6 C 8,4 C 15,8 km/h (3 Bft) 0,00 %
19.12.2014 05:00 10,7 C 67 % 1017,4 hPa 0,0 l/m 18,3 km/h (3 Bft) S 180 0 min 0,000 mm 0,0 UV-I 0 W/m 4,8 C 4,7 C 28,0 km/h (4 Bft) 0,00 %
19.12.2014 06:00 10,2 C 68 % 1018,2 hPa 0,0 l/m 4,3 km/h (1 Bft) W 280 0 min 0,000 mm 0,0 UV-I 0 W/m 4,6 C 10,2 C 7,9 km/h (2 Bft) 0,00 %
19.12.2014 07:00 10,1 C 72 % 1018,6 hPa 0,0 l/m 4,7 km/h (1 Bft) S 190 0 min 0,000 mm 0,0 UV-I 0 W/m 5,3 C 10,1 C 7,9 km/h (2 Bft) 0,00 %
19.12.2014 08:00 10,3 C 68 % 1018,6 hPa 0,0 l/m 2,1 km/h (1 Bft) W-SW 247 0 min 0,000 mm 0,0 UV-I 0 W/m 4,7 C 10,3 C 4,0 km/h (1 Bft) 0,00 %
19.12.2014 09:00 9,9 C 72 % 1018,7 hPa 0,0 l/m 0,0 km/h (0 Bft) S-SO 160 0 min 0,000 mm 0,0 UV-I 33 W/m 5,1 C 9,9 C 0,0 km/h (0 Bft) 0,00 %
19.12.2014 10:00 10,9 C 69 % 1018,5 hPa 0,0 l/m 4,3 km/h (1 Bft) S 190 0 min 0,000 mm 1,0 UV-I 105 W/m 5,4 C 10,9 C 7,9 km/h (2 Bft) 0,00 %
19.12.2014 11:00 11,6 C 65 % 1017,7 hPa 0,0 l/m 1,8 km/h (1 Bft) S 190 0 min 0,000 mm 1,0 UV-I 88 W/m 5,2 C 11,6 C 4,0 km/h (1 Bft) 0,00 %
19.12.2014 12:00 11,9 C 64 % 1016,6 hPa 0,0 l/m 4,3 km/h (1 Bft) SW 220 0 min 0,000 mm 1,0 UV-I 82 W/m 5,3 C 11,9 C 7,9 km/h (2 Bft) 0,00 %
19.12.2014 13:00 12,4 C 64 % 1015,4 hPa 0,0 l/m 1,4 km/h (1 Bft) W 270 0 min 0,000 mm 1,0 UV-I 96 W/m 5,8 C 12,4 C 4,0 km/h (1 Bft) 0,00 %
19.12.2014 14:00 13,7 C 59 % 1014,1 hPa 0,0 l/m 0,3 km/h (0 Bft) W-NW 300 0 min 0,000 mm 1,0 UV-I 101 W/m 5,8 C 13,7 C 4,0 km/h (1 Bft) 0,00 %
19.12.2014 15:00 12,5 C 62 % 1014,3 hPa 0,0 l/m 0,0 km/h (0 Bft) S 180 0 min 0,000 mm 1,0 UV-I 52 W/m 5,4 C 12,5 C 0,0 km/h (0 Bft) 0,00 %
19.12.2014 16:00 10,0 C 72 % 1014,4 hPa 0,0 l/m 0,0 km/h (0 Bft) S 190 0 min 0,000 mm 0,0 UV-I 1 W/m 5,2 C 10,0 C 0,0 km/h (0 Bft) 0,00 %
19.12.2014 17:00 9,0 C 71 % 1014,5 hPa 0,0 l/m 0,0 km/h (0 Bft) S 190 0 min 0,000 mm 0,0 UV-I 0 W/m 4,0 C 9,0 C 0,0 km/h (0 Bft) 0,00 %
19.12.2014 18:00 7,8 C 74 % 1015,0 hPa 0,0 l/m 0,0 km/h (0 Bft) O 90 0 min 0,000 mm 0,0 UV-I 0 W/m 3,5 C 7,8 C 0,0 km/h (0 Bft) 0,00 %
19.12.2014 19:00 8,2 C 73 % 1015,0 hPa 0,0 l/m 0,0 km/h (0 Bft) S 190 0 min 0,000 mm 0,0 UV-I 0 W/m 3,7 C 8,2 C 0,0 km/h (0 Bft) 0,00 %
19.12.2014 20:00 9,1 C 66 % 1015,5 hPa 0,0 l/m 0,0 km/h (0 Bft) S-SW 200 0 min 0,000 mm 0,0 UV-I 0 W/m 3,1 C 9,1 C 0,0 km/h (0 Bft) 0,00 %
19.12.2014 21:00 11,3 C 59 % 1015,2 hPa 0,0 l/m 0,3 km/h (0 Bft) N-NO 20 0 min 0,000 mm 0,0 UV-I 0 W/m 3,6 C 11,3 C 4,0 km/h (1 Bft) 0,00 %
19.12.2014 22:00 9,6 C 71 % 1016,5 hPa 0,0 l/m 4,3 km/h (1 Bft) NW 310 0 min 0,000 mm 0,0 UV-I 0 W/m 4,6 C 9,6 C 11,9 km/h (2 Bft) 0,00 %
19.12.2014 23:00 9,5 C 71 % 1017,3 hPa 0,9 l/m 9,7 km/h (2 Bft) S-SW 200 0 min 0,000 mm 0,0 UV-I 0 W/m 4,5 C 7,2 C 11,9 km/h (2 Bft) 0,00 %
_ Min-Zeit 18:00 14:00 14:00 - 09:00 - - - - - - 20:00 05:00 09:00 00:00
Minimum _ 7,8 C 59 % 1014,1 hPa - 0,0 km/h (0 Bft) - - - - - - 3,1 C 4,7 C 0,0 km/h (0 Bft) 0,00 %
_ Max-Zeit 14:00 00:00 09:00 23:00 05:00 - - 00:00 00:00 10:00 10:00 01:00 14:00 05:00 00:00
Maximum _ 13,7 C 81 % 1018,7 hPa 0,9 l/m 18,3 km/h
S (3 Bft)
- - 0 min 0,000 mm 1,0 UV-I 105 W/m 7,2 C 13,7 C 28,0 km/h
S (4 Bft)
0,00 %
Durchschnitt _ 10,5 C 69 % 1016,5 hPa #0,9 l/m 3,3 km/h (1 Bft) S - #0 min. #0,000 mm 1,0 UV-I 70 W/m 5,0 C 10,0 C 6,0 km/h (2 Bft) 0,00 %